Meteo pe oră la Dziadowka

Astăzi, 22 Iunie, Marţi

Timp Temperatura Precipitaţii Vânt Presiune Umiditate
00:00 +20°C° 0 mm 2 m/s 736 mmHg 90%
01:00 +20°C° 0 mm 1 m/s 736 mmHg 91%
02:00 +20°C° 0 mm 1 m/s 736 mmHg 92%
03:00 +19°C° 0 mm 2 m/s 736 mmHg 93%
04:00 +19°C° 0 mm 2 m/s 736 mmHg 93%
05:00 +21°C° 0 mm 2 m/s 736 mmHg 87%
06:00 +23°C° 0 mm 2 m/s 736 mmHg 81%
07:00 +25°C° 0 mm 2 m/s 737 mmHg 74%
08:00 +27°C° 0 mm 2 m/s 737 mmHg 68%
09:00 +28°C° 0 mm 2 m/s 737 mmHg 62%
10:00 +30°C° 0 mm 2 m/s 737 mmHg 56%
11:00 +31°C° 0 mm 2 m/s 737 mmHg 53%
12:00 +33°C° 0 mm 3 m/s 737 mmHg 49%
13:00 +34°C° 0 mm 3 m/s 737 mmHg 46%
14:00 +33°C° 0 mm 3 m/s 737 mmHg 47%
15:00 +33°C° 0 mm 4 m/s 737 mmHg 49%
16:00 +33°C° 0 mm 4 m/s 737 mmHg 50%
17:00 +30°C° 0 mm 4 m/s 737 mmHg 57%
18:00 +29°C° 0 mm 4 m/s 737 mmHg 64%
19:00 +27°C° 0 mm 3 m/s 737 mmHg 70%
20:00 +25°C° 1 mm 3 m/s 737 mmHg 77%
21:00 +24°C° 1 mm 3 m/s 738 mmHg 83%
22:00 +21°C° 1 mm 3 m/s 738 mmHg 89%
23:00 +21°C° 1.7 mm 2 m/s 738 mmHg 92%

Mâine, 23 Iunie, Miercuri

Timp Temperatura Precipitaţii Vânt Presiune Umiditate
00:00 +20°C° 1.7 mm 2 m/s 739 mmHg 94%
01:00 +20°C° 1.7 mm 2 m/s 739 mmHg 96%
02:00 +20°C° 0.7 mm 2 m/s 739 mmHg 96%
03:00 +20°C° 0.7 mm 2 m/s 739 mmHg 96%
04:00 +20°C° 0.7 mm 2 m/s 739 mmHg 96%
05:00 +21°C° 0 mm 2 m/s 740 mmHg 92%
06:00 +21°C° 0 mm 2 m/s 740 mmHg 88%
07:00 +22°C° 0 mm 3 m/s 741 mmHg 84%
08:00 +25°C° 0.1 mm 2 m/s 741 mmHg 79%
09:00 +26°C° 0.1 mm 2 m/s 741 mmHg 73%
10:00 +27°C° 0.1 mm 1 m/s 742 mmHg 68%
11:00 +28°C° 0 mm 1 m/s 742 mmHg 65%
12:00 +29°C° 0 mm 1 m/s 741 mmHg 62%
13:00 +30°C° 0 mm 2 m/s 741 mmHg 59%
14:00 +30°C° 0.2 mm 2 m/s 742 mmHg 61%
15:00 +29°C° 0.2 mm 2 m/s 742 mmHg 63%
16:00 +29°C° 0.2 mm 2 m/s 742 mmHg 64%
17:00 +28°C° 0.1 mm 2 m/s 742 mmHg 70%
18:00 +27°C° 0.1 mm 2 m/s 742 mmHg 76%
19:00 +26°C° 0.1 mm 2 m/s 742 mmHg 81%
20:00 +24°C° 0.2 mm 2 m/s 742 mmHg 85%
21:00 +23°C° 0.2 mm 2 m/s 742 mmHg 89%
22:00 +21°C° 0.2 mm 2 m/s 742 mmHg 93%
23:00 +20°C° 0.2 mm 2 m/s 742 mmHg 94%

Poimâine, 24 Iunie, Joi

Timp Temperatura Precipitaţii Vânt Presiune Umiditate
00:00 +20°C° 0.2 mm 2 m/s 742 mmHg 95%
01:00 +20°C° 0.2 mm 2 m/s 742 mmHg 95%
02:00 +19°C° 0 mm 2 m/s 742 mmHg 95%
03:00 +20°C° 0 mm 1 m/s 742 mmHg 95%
04:00 +20°C° 0 mm 1 m/s 742 mmHg 95%
05:00 +21°C° 0 mm 1 m/s 742 mmHg 91%
06:00 +23°C° 0 mm 1 m/s 742 mmHg 87%
07:00 +24°C° 0 mm 1 m/s 743 mmHg 83%
08:00 +26°C° 0 mm 1 m/s 742 mmHg 77%
09:00 +27°C° 0 mm 1 m/s 742 mmHg 72%
10:00 +29°C° 0 mm 1 m/s 742 mmHg 66%
11:00 +30°C° 0.1 mm 1 m/s 742 mmHg 63%
12:00 +31°C° 0.1 mm 1 m/s 742 mmHg 59%
13:00 +31°C° 0.1 mm 1 m/s 742 mmHg 56%
14:00 +32°C° 0.3 mm 2 m/s 741 mmHg 55%
15:00 +32°C° 0.3 mm 2 m/s 741 mmHg 54%
16:00 +32°C° 0.3 mm 2 m/s 740 mmHg 53%
17:00 +28°C° 1.9 mm 3 m/s 740 mmHg 65%
18:00 +25°C° 1.9 mm 3 m/s 741 mmHg 77%
19:00 +20°C° 1.9 mm 3 m/s 741 mmHg 89%
20:00 +20°C° 0.6 mm 3 m/s 740 mmHg 88%
21:00 +20°C° 0.6 mm 2 m/s 740 mmHg 87%
22:00 +19°C° 0.6 mm 2 m/s 740 mmHg 87%
23:00 +19°C° 0 mm 2 m/s 739 mmHg 87%

25 Iunie, Vineri

Timp Temperatura Precipitaţii Vânt Presiune Umiditate
00:00 +19°C° 0 mm 2 m/s 739 mmHg 88%
01:00 +19°C° 0 mm 2 m/s 739 mmHg 88%
02:00 +19°C° 0 mm 3 m/s 738 mmHg 90%
03:00 +19°C° 0 mm 3 m/s 738 mmHg 92%
04:00 +19°C° 0 mm 3 m/s 737 mmHg 93%
05:00 +21°C° 0 mm 3 m/s 737 mmHg 88%
06:00 +23°C° 0 mm 4 m/s 738 mmHg 83%
07:00 +26°C° 0 mm 4 m/s 738 mmHg 78%
08:00 +26°C° 0 mm 5 m/s 738 mmHg 73%
09:00 +27°C° 0 mm 5 m/s 739 mmHg 68%
10:00 +27°C° 0 mm 6 m/s 739 mmHg 63%
11:00 +28°C° 0 mm 6 m/s 739 mmHg 59%
12:00 +28°C° 0 mm 6 m/s 739 mmHg 55%
13:00 +29°C° 0 mm 5 m/s 739 mmHg 51%
14:00 +28°C° 0 mm 5 m/s 739 mmHg 51%
15:00 +28°C° 0 mm 5 m/s 739 mmHg 52%
16:00 +28°C° 0 mm 4 m/s 739 mmHg 52%
17:00 +27°C° 0 mm 4 m/s 739 mmHg 59%
18:00 +25°C° 0 mm 4 m/s 739 mmHg 65%
19:00 +22°C° 0 mm 4 m/s 739 mmHg 72%
20:00 +21°C° 0 mm 4 m/s 740 mmHg 75%
21:00 +19°C° 0 mm 4 m/s 740 mmHg 77%
22:00 +18°C° 0 mm 4 m/s 741 mmHg 79%
23:00 +15°C° 0 mm 4 m/s 741 mmHg 83%

26 Iunie, Sâmbătă

Timp Temperatura Precipitaţii Vânt Presiune Umiditate
00:00 +14°C° 0 mm 3 m/s 741 mmHg 88%
01:00 +13°C° 0 mm 3 m/s 741 mmHg 92%
02:00 +13°C° 0 mm 3 m/s 742 mmHg 91%
03:00 +14°C° 0 mm 2 m/s 742 mmHg 90%
04:00 +13°C° 0 mm 2 m/s 742 mmHg 89%
05:00 +14°C° 0 mm 3 m/s 742 mmHg 81%
06:00 +17°C° 0 mm 3 m/s 742 mmHg 73%
07:00 +18°C° 0 mm 3 m/s 742 mmHg 65%
08:00 +20°C° 0 mm 3 m/s 742 mmHg 62%
09:00 +21°C° 0 mm 3 m/s 743 mmHg 58%
10:00 +22°C° 0 mm 3 m/s 743 mmHg 54%
11:00 +23°C° 0 mm 4 m/s 742 mmHg 53%
12:00 +23°C° 0 mm 4 m/s 742 mmHg 52%
13:00 +25°C° 0 mm 4 m/s 742 mmHg 51%
14:00 +25°C° 0 mm 4 m/s 742 mmHg 50%
15:00 +25°C° 0 mm 4 m/s 742 mmHg 49%
16:00 +25°C° 0 mm 4 m/s 742 mmHg 48%
17:00 +23°C° 0 mm 4 m/s 742 mmHg 55%
18:00 +21°C° 0 mm 3 m/s 741 mmHg 61%
19:00 +20°C° 0 mm 2 m/s 741 mmHg 68%
20:00 +18°C° 0 mm 2 m/s 742 mmHg 74%
21:00 +17°C° 0 mm 2 m/s 742 mmHg 80%
22:00 +16°C° 0 mm 1 m/s 742 mmHg 87%
23:00 +15°C° 0 mm 1 m/s 742 mmHg 87%

27 Iunie, Duminică

Timp Temperatura Precipitaţii Vânt Presiune Umiditate
00:00 +15°C° 0 mm 1 m/s 742 mmHg 88%
01:00 +14°C° 0 mm 0 m/s 742 mmHg 89%
02:00 +15°C° 0 mm 1 m/s 742 mmHg 89%
03:00 +14°C° 0 mm 1 m/s 742 mmHg 89%
04:00 +14°C° 0 mm 1 m/s 742 mmHg 90%
05:00 +16°C° 0 mm 1 m/s 742 mmHg 83%
06:00 +19°C° 0 mm 1 m/s 743 mmHg 76%
07:00 +21°C° 0 mm 1 m/s 743 mmHg 69%
08:00 +22°C° 0 mm 1 m/s 743 mmHg 63%
09:00 +22°C° 0 mm 0 m/s 743 mmHg 57%
10:00 +23°C° 0 mm 0 m/s 743 mmHg 51%
11:00 +24°C° 0 mm 0 m/s 743 mmHg 49%
12:00 +27°C° 0 mm 1 m/s 743 mmHg 46%
13:00 +27°C° 0 mm 1 m/s 742 mmHg 44%
14:00 +27°C° 0 mm 1 m/s 742 mmHg 43%
15:00 +27°C° 0 mm 1 m/s 742 mmHg 43%
16:00 +27°C° 0 mm 1 m/s 742 mmHg 42%
17:00 +26°C° 0 mm 1 m/s 742 mmHg 49%
18:00 +25°C° 0 mm 1 m/s 742 mmHg 55%
19:00 +23°C° 0 mm 1 m/s 742 mmHg 62%
20:00 +22°C° 0 mm 1 m/s 742 mmHg 66%
21:00 +20°C° 0 mm 1 m/s 742 mmHg 71%
22:00 +18°C° 0 mm 2 m/s 742 mmHg 76%
23:00 +17°C° 0 mm 2 m/s 742 mmHg 79%
Arată mai mult

Formular de consimțământ

Meteoprog și furnizorii noștri de servicii pot stoca și accesa date personale, precum cookies, identificatori de dispozitiv sau alte tehnologii similare pe dispozitivul dumneavoastră și procesa astfel de date pentru a personaliza conținutul și reclamele, dar și pentru a oferi caracteristici de social media și pentru a analiza traficul.

  • Stocarea și/sau accesarea informațiilor pe dispozitivul dumneavoastră

    Cookies, identificatori de dispozitiv sau alte informații pot fi stocate sau accesate pe dispozitiv în scopurile indicate mai sus.

  • Reclame și conținut personalizat, evaluarea reclamelor și a conținutului, informații despre audiențe și dezvoltarea produselor

    Reclamele și conținutul pot fi personalizate pe baza unui profil. Pot fi adăugate date suplimentare pentru a personaliza mai bine reclamele și conținutul. Performanța reclamelor și conținutului poate fi măsurată. Pot fi obținute informații despre utilizatorii care au văzut reclamele și conținutul. Aceste date pot fi utilizate pentru a dezvolta sau îmbunătăți experiența utilizatorilor, sistemele și software-ul.

Dând clic pe ‘Sunt de acord’, permiteți utilizarea cookie-urilor menționate, a identificatorilor de dispozitiv, balizelor web sau altor tehnologii similare. Setările pot fi modificate din browser-ul dispozitivului dumneavoastră.

În anumite scopuri, interesele legitime pot prima asupra consimțământului. Puteți citi mai multe informații în acest sens în Politica privind Confidențialitatea Datelor și Cookie.